{"data":{"norad_id":47234,"epoch":"2026-06-17T06:46:16.874400Z","epoch_age_seconds":8303268,"freshness":"OLD","line1":"1 47234U 20094A   26168.28213975  .00001679  00000+0  11743-3 0  9996","line2":"2 47234  28.9954  25.3931 0010614 318.1471  41.8315 15.00786144301708","mean_motion":15.00786144,"eccentricity":0.0010614,"inclination_deg":28.9954,"raan_deg":25.3931,"arg_perigee_deg":318.1471,"mean_anomaly_deg":41.8315,"bstar":0.00011743,"rev_number":30170,"period_min":95.949713139143,"perigee_km":557.10194487864,"apogee_km":571.83971277768,"semimajor_km":6942.6078288282,"source":"CELESTRAK","updated_at":"2026-07-16T09:00:21.610593Z"}}